Flag for Canada Weather past 2 weeks in Glace Bay, Nova Scotia, Canada

Now
37 °F

Fog.


Feels Like: 35 °F
Forecast: N/A
Wind: 3 mph from South

Location: Sydney

Current Time: Jan 28, 2015 at 6:33:17 PM

Latest Report: Jan 28, 2015 at 6:00 PM


Visibility: 3 mi

Pressure: 29.65 "Hg

Humidity: 100%

Dew point: 37 °F

Location of Glace BayLocation

Historic Weather in Glace Bay — Graph

°F

Glace Bay temperature yesterday

Maximum temperature yesterday: 32 °F (at 11:00 PM)
Minimum temperature yesterday: 7 °F (at 12:00 AM)
Average temperature yesterday: 23 °F

Past Weeks' High & Low Weather Summary

 TemperatureHumidityPressure
High48 °F (Jan 25, 3:00 AM)100% (Jan 16, 7:00 AM)30.54 "Hg (Jan 16, 7:00 AM)
Low5 °F (Jan 18, 7:00 AM)53% (Jan 18, 11:00 AM)28.54 "Hg (Jan 25, 6:00 AM)
Average25 °F82%29.88 "Hg
* Reported Jan 13 5:00 PM — Jan 28 5:00 PM, Glace Bay, Weather by CustomWeather, © 2014

Note: Actual official high and low records may vary slightly from our data, if they occured in-between our weather recording intervals... More about our weather records

Advertising

Glace Bay weather history for previous 24 hours

 ConditionsComfort  
Time TempWeatherWind HumidityBarometerVisibility
5:00 PM
Jan 28
37 °FFog.7 mph100%29.63 "Hg0 mi
4:00 PM39 °FFog.5 mph93%29.63 "Hg1 mi
3:00 PM39 °FFog.2 mph100%29.62 "Hg1 mi
2:52 PM41 °FFog.3 mph93%29.62 "Hg1 mi
2:00 PM41 °FQuite cool.7 mph93%29.63 "Hg6 mi
1:00 PM41 °FBroken clouds.8 mph93%29.63 "Hg10 mi
12:00 PM39 °FOvercast.5 mph93%29.63 "Hg10 mi
11:00 AM36 °FFog.5 mph100%29.64 "Hg6 mi
10:54 AM36 °FFog.3 mph100%29.63 "Hg4 mi
10:00 AM34 °FFog.3 mph100%29.62 "Hg1 mi
9:04 AM34 °FFog.6 mph100%29.60 "Hg1 mi
8:00 AM34 °FFog.8 mph100%29.57 "Hg0 mi
7:00 AM34 °FFog.5 mph93%29.54 "Hg0 mi
6:00 AM32 °FLight freezing rain. Ice fog.3 mph100%29.52 "Hg1 mi
5:00 AM32 °FLight freezing rain. Ice fog.7 mph100%29.49 "Hg1 mi
4:00 AM32 °FIce fog.6 mph100%29.46 "Hg0 mi
3:00 AM32 °FIce fog.8 mph100%29.46 "Hg0 mi
2:00 AM32 °FLight freezing rain. Ice fog.7 mph100%29.46 "Hg1 mi
1:55 AM32 °FLight freezing rain. Ice fog.9 mph100%29.46 "Hg1 mi
1:00 AM32 °FDrizzle. Fog.8 mph100%29.46 "Hg0 mi
12:00 AM32 °FLight rain. Fog.12 mph100%29.48 "Hg1 mi
11:00 PM
Jan 27
32 °FLight freezing rain. Ice fog.14 mph100%29.53 "Hg1 mi
10:04 PM30 °FLight freezing rain. Ice fog.17 mph100%29.56 "Hg1 mi
9:00 PM30 °FLight freezing rain. Ice fog.21 mph100%29.61 "Hg1 mi
8:00 PM30 °FLight mixture of precip. Low clouds.23 mph93%29.64 "Hg2 mi
7:00 PM28 °FLight mixture of precip. Mostly cloudy.30 mph100%29.67 "Hg1 mi
6:00 PM28 °FSnow. Ice fog.32 mph93%29.67 "Hg1 mi
Weather by CustomWeather, © 2014

See weather overviewHow to use our weather pages